Regional Weather Roundup
Issued by NWS Bismarck, ND

Home | Current Version | Previous Version | Text Only | Print | Product List | Glossary On
Versions: 1 2 3 4 5 6 7 8 9 10 11 12 13 14 15 16 17 18 19 20 21 22 23 24 25 26 27 28 29 30 31 32 33 34 35 36 37 38 39 40 41 42 43 44 45 46 47 48 49 50
000
ASUS43 KBIS 032110
RWRBIS

NWR BROADCAST TEXT
NATIONAL WEATHER SERVICE BISMARCK ND
300 PM CST SAT DEC 03 2016

NOTE: "FAIR" INDICATES FEW OR NO CLOUDS BELOW 12,000 FEET WITH NO
SIGNIFICANT WEATHER AND/OR OBSTRUCTIONS TO VISIBILITY.


CITY           SKY/WX    TMP DP  RH WIND       PRES   REMARKS
WILLISTON      CLOUDY    34  26  72 S8        29.74F
MINOT          SUNNY     28  24  85 S18G24    29.79F WCI  15
MINOT AFB      NOT AVBL
BISMARCK       PTSUNNY   28  24  85 SE7       29.89S
DICKINSON      CLOUDY    30  24  78 SW10      29.77F
GARRISON         N/A     26  22  84 S14       29.82F WCI  14
HETTINGER ARPT CLOUDY    30  24  78 SW3       29.84S
JAMESTOWN      CLOUDY    32  28  85 SE16      29.93F
BEACH          MOCLDY    34  27  75 SW13      29.80S
CARRINGTON     MOCLDY    32  28  86 SE23      29.92F WCI  19
HAZEN          FAIR      25  19  80 S10       29.86F WCI  15
RUGBY            N/A     28  27  93 SE18      29.86F WCI  16
STANLEY        FAIR      27  27 100 S12       29.77F WCI  16
TIOGA          FAIR      28  28 100 S14       29.75F FOG     WCI  17
WATFORD CITY   FAIR      32  28  86 SW9       29.76F
$$

CITY           SKY/WX    TMP DP  RH WIND       PRES   REMARKS
GRAND FORKS    CLOUDY    31  23  72 SE18      30.05F WCI  19
GRAND FORKS AF NOT AVBL
DEVILS LAKE    PTSUNNY   31  28  89 S17       29.92F WCI  19
FARGO          MOSUNNY   32  25  75 SE16      30.06F
CANDO          CLOUDY    32  28  86 SE17      29.92F
CAVALIER         N/A     28  27  93 S20G26    30.02S WCI  15
GRAFTON        CLOUDY    28  25  86 S18G24    30.06F WCI  16
GWINNER          N/A     34  32  93 SE17      30.01F
LANGDON        CLOUDY    30  28  93 S17G28    29.93F WCI  18
ROLLA          CLOUDY    28  28 100 S17G26    29.88S WCI  16
WALHALLA         N/A     28  28 100 SE23G29   29.99F WCI  14
$$

CITY           SKY/WX    TMP DP  RH WIND       PRES   REMARKS
ABERDEEN       PTSUNNY   35  31  85 S17G24    29.98F
MOBRIDGE       SUNNY     37  29  72 S8        29.87S
BUFFALO          N/A     37  28  70 W13       29.76F
RAPID CITY     CLOUDY    42  23  46 NW15      29.88R
GLASGOW        FLURRIES  34  32  92 W17       29.76R
SIDNEY         CLOUDY    33  26  75 S14       29.76F
WOLF POINT     CLOUDY    41  29  62 W17G25    29.74S
GLENDIVE       CLOUDY    39  29  67 SW9       29.77F
MILES CITY     CLOUDY    46  22  38 W20       29.80F
BAKER          SUNNY     36  24  62 W20       29.80S
$$

CITY           SKY/WX    TMP DP  RH WIND       PRES   REMARKS
BILLINGS       PTSUNNY   45  15  30 NW25G35   29.88R
GREAT FALLS    SUNNY     42  22  44 W15       29.89S
REGINA         PTSUNNY   34  30  86 W13       29.63S
ESTEVAN        LGT SNOW  30  28  93 S13G22    29.71F
$$




USA.gov is the U.S. government's official web portal to all federal, state and local government web resources and services.